[[{"header":{"parameterUnit":"m.s-1","parameterCategory":1,"la1":30.2991,"la2":30.254,"lo1":-89.0895,"lo2":-89.0444,"dy":0.0017,"dx":0.0017,"nx":28,"ny":28,"refTime":"2025-04-20T03:00:00:Z","depth":0,"parameterNumber":2,"parameterNumberName":"U-component_of_WINDS"},"data":[0,0,0,0,0,0,0,0,0,0,0,0,0,0,0,0,0,0,0,0,0,0,0,0,0,0,0,0,0,0,0,0,0,0,0,0,0,0,0,0,0,0,0,0,0,0,0,0,0,0,0,0,0,0,0,0,0,0,-5.8244,-5.8245,0,-5.8306,-5.8306,-5.8307,-5.8214,-5.8211,-5.8207,-5.8204,-5.8265,-5.8269,-5.8274,0,0,0,0,0,0,0,0,0,0,0,0,0,-5.8043,-5.8047,-5.8244,-5.8245,-5.8245,-5.8306,-5.8306,-5.8307,-5.8214,-5.821,-5.8207,-5.8203,-5.8263,-5.8269,-5.8274,0,0,0,0,0,0,0,0,0,0,0,0,0,-5.812,-5.8049,-5.8244,-5.8206,-5.8204,-5.8305,-5.8307,-5.8308,-5.8215,-5.821,-5.8205,-5.8201,-5.8261,-5.8268,-5.8275,-5.8415,0,0,-5.8296,-5.8299,0,0,0,0,0,0,0,0,-5.8116,-5.8128,-5.8211,-5.8209,-5.8206,-5.8247,-5.8258,-5.8344,-5.8216,-5.8211,-5.8204,-5.8199,-5.8263,-5.8269,-5.8291,-5.8418,-5.8421,-5.8297,-5.8301,-5.8304,-5.8306,0,0,0,0,0,0,0,-5.8111,-5.8124,-5.8268,-5.8212,-5.821,-5.8186,-5.8191,-5.8274,-5.8263,-5.8211,-5.8204,-5.8213,-5.826,-5.8285,-5.8292,-5.8421,-5.8297,-5.8303,-5.8307,-5.831,-5.8666,-5.8671,0,0,0,0,0,0,-5.811,-5.8121,-5.8266,-5.827,-5.8148,-5.8193,-5.82,-5.8239,-5.8262,-5.8261,-5.8217,-5.8208,-5.8275,-5.8284,-5.8294,-5.8458,-5.8304,-5.831,-5.8314,-5.8661,-5.8667,-5.8673,0,0,0,0,0,0,-5.8106,-5.8124,-5.8264,-5.8194,-5.821,-5.8202,-5.8247,-5.8243,-5.8267,-5.8267,-5.8264,-5.8244,-5.8272,-5.8284,-5.8386,-5.8459,-5.8314,-5.832,-5.8654,-5.8663,-5.867,-5.8789,0,0,0,0,0,0,-5.8101,-5.8123,-5.8177,-5.8196,-5.8214,-5.8356,-5.8252,-5.8247,-5.828,-5.8269,-5.8291,-5.829,-5.8269,-5.8376,-5.8393,-5.8466,-5.8325,-5.8648,-5.8658,-5.8667,-5.8779,-5.88,-5.8819,0,0,0,0,0,-5.8094,-5.8207,-5.818,-5.8198,-5.8281,-5.836,-5.837,-5.8344,-5.8286,-5.8339,-5.8339,-5.829,-5.8449,-5.8387,-5.8405,-5.8482,-5.8643,-5.8655,-5.8667,-5.877,-5.8796,-5.8818,0,0,0,0,0,0,-5.8196,-5.8209,-5.8179,-5.8302,-5.8331,-5.8344,-5.841,-5.8373,-5.8418,-5.8406,-5.8371,-5.8377,-5.8486,-5.8494,-5.8425,-5.8619,-5.8536,-5.8552,-5.8608,-5.8633,-5.8653,-5.8647,-5.8331,0,0,0,0,0,-5.8233,-5.8297,-5.8305,-5.8412,-5.8429,-5.8418,-5.8451,-5.8429,-5.8457,-5.8468,-5.8475,-5.8504,-5.856,-5.8598,-5.865,-5.8781,-5.8783,-5.8843,-5.8863,-5.8879,-5.8892,-5.8961,-5.8987,-5.8712,-5.8712,-5.8712,0,0,-5.8309,-5.8324,-5.8367,-5.8433,-5.8453,-5.8519,-5.8428,-5.8502,-5.855,-5.8479,-5.8575,-5.8582,-5.8612,-5.8729,-5.878,-5.8739,-5.897,-5.8894,-5.8907,-5.8912,-5.8976,-5.9002,-5.9025,-5.872,-5.8719,-5.8717,0,0,-5.8481,-5.8501,-5.8591,-5.8614,-5.8646,-5.8638,-5.866,-5.868,-5.8682,-5.8779,-5.8726,-5.8784,-5.8882,-5.8905,-5.8929,-5.9113,-5.9069,-5.9132,-5.9235,-5.9302,-5.9324,-5.9343,-5.9407,-5.943,-5.9145,-5.9146,-5.9146,0,-5.8571,-5.867,-5.8643,-5.8721,-5.8751,-5.8692,-5.8783,-5.8806,-5.8853,-5.8875,-5.8829,-5.8951,-5.8967,-5.9088,-5.9133,-5.9156,-5.9179,-5.9127,-5.9323,-5.9342,-5.9359,-5.9419,-5.9444,-5.9153,-5.9152,-5.9151,-5.9151,0,-5.8778,-5.8848,-5.8918,-5.8965,-5.9004,-5.9089,-5.9074,-5.9116,-5.9092,-5.9089,-5.9188,-5.9206,-5.926,-5.9288,-5.9264,-5.9406,-5.9379,-5.9329,-5.9245,-5.9393,-5.9449,-5.9472,-5.9163,-5.9161,-5.9159,-5.9157,0,0,-5.9012,-5.9046,-5.9072,-5.9093,-5.9125,-5.9177,-5.926,-5.9314,-5.935,-5.9386,-5.9453,-5.9539,-5.9493,-5.9521,-5.95,-5.956,-5.9702,-5.9502,-5.9502,-5.9537,-5.9858,-5.9892,-5.992,-5.9675,-5.9679,-5.9683,-5.9854,0,-5.9182,-5.9324,-5.9303,-5.944,-5.9503,-5.9449,-5.952,-5.9548,-5.9548,-5.9601,-5.9601,-5.9662,-5.9598,-5.9614,-5.9672,-5.9673,-5.9766,-5.9661,-5.9734,-5.9737,-5.9725,-5.9949,-5.9986,-6.0147,-5.9876,-5.988,-5.9883,0,-5.9398,-5.9442,-5.9585,-5.9608,-5.9634,-5.9698,-5.9746,-5.9799,-5.9829,-5.9825,-5.9858,-5.9826,-5.9907,-5.9826,-5.9936,-5.9865,-5.9895,-5.9901,-5.9906,-5.9909,-5.9816,-5.9955,-6.0198,-6.0221,-5.9917,-5.9914,-5.9912,0,-5.9551,-5.9647,-5.9745,-5.9765,-5.9794,-5.9841,-5.9855,-5.9881,-5.9915,-5.9958,-5.9979,-6.0031,-6.0058,-6.0099,-6.0081,-6.0024,-6.0195,-6.0112,-6.0192,-6.0193,-6.0227,-6.0225,-6.0475,-6.0253,-6.0252,-6.0252,-6.0251,0,-5.974,-5.9829,-5.9814,-5.9874,-5.9972,-5.9948,-6.0046,-6.0054,-6.0077,-6.0137,-6.0095,-6.0151,-6.0127,-6.0182,-6.017,-6.0263,-6.0276,-6.0274,-6.0269,-6.0276,-6.0276,-6.0292,-6.0279,-6.0258,-6.0257,-6.0256,-6.0255,0,-5.9926,-5.992,-6.0022,-6.0043,-6.0051,-6.0122,-6.0139,-6.0195,-6.0193,-6.027,-6.0286,-6.0283,-6.0346,-6.0335,-6.0404,-6.0396,-6.0511,-6.0494,-6.0501,-6.0495,-6.0576,-6.0567,-6.0842,-6.0876,-6.0635,-6.0637,-6.0639,0,-6.0046,-6.0113,-6.0142,-6.0179,-6.0198,-6.0259,-6.0294,-6.0274,-6.0312,-6.0353,-6.0404,-6.0463,-6.0509,-6.0613,-6.0616,-6.0669,-6.0651,-6.0744,-6.0658,-6.0663,-6.0649,-6.0643,-6.0649,-6.0759,-6.0762,-6.0764,-6.0766,0,-6.0258,-6.0252,-6.0305,-6.0357,-6.0401,-6.0441,-6.0477,-6.051,-6.0493,-6.0538,-6.0603,-6.0639,-6.0711,-6.077,-6.082,-6.0834,-6.0797,-6.0794,-6.0815,-6.082,-6.082,-6.0819,-6.0544,-6.0786,-6.0784,-6.0783,-6.0782,-6.0781,-6.0412,-6.0469,-6.0499,-6.0559,-6.0585,-6.062,-6.0673,-6.0679,-6.0733,-6.079,-6.0776,-6.0849,-6.0878,-6.0941,-6.0961,-6.1017,-6.0982,-6.1013,-6.102,-6.1027,-6.1036,-6.0815,-6.1026,-6.1026,-6.1025,-6.1025,-6.1024,0,-6.0619,-6.0636,-6.0693,-6.0745,-6.0793,-6.0757,-6.0795,-6.0837,-6.0902,-6.0933,-6.098,-6.1054,-6.1112,-6.1122,-6.1176,-6.1219,-6.1204,-6.1234,-6.1229,-6.1232,-6.1065,-6.104,-6.1246,-6.1246,-6.1246,-6.1246,-6.1245,-6.1245,-6.0732,-6.0827,-6.0825,-6.0932,-6.0948,-6.102,-6.1045,-6.1077,-6.1101,-6.1186,-6.1235,-6.1241,-6.1263,-6.132,-6.1371,-6.1372,-6.1393,-6.1429,-6.1424,-6.1266,-6.1244,-6.1223,-6.1199,-6.1435,-6.1435,-6.1586,-6.1587,-6.1588]},{"header":{"parameterUnit":"m.s-1","parameterCategory":1,"la1":30.2991,"la2":30.254,"lo1":-89.0895,"lo2":-89.0444,"dy":0.0017,"dx":0.0017,"nx":28,"ny":28,"refTime":"2025-04-20T03:00:00:Z","depth":0,"parameterNumber":3,"parameterNumberName":"V-component_of_WINDS"},"data":[0,0,0,0,0,0,0,0,0,0,0,0,0,0,0,0,0,0,0,0,0,0,0,0,0,0,0,0,0,0,0,0,0,0,0,0,0,0,0,0,0,0,0,0,0,0,0,0,0,0,0,0,0,0,0,0,0,0,2.6141,2.6141,0,2.6149,2.6149,2.6149,2.6127,2.6127,2.6126,2.6125,2.6129,2.613,2.6131,0,0,0,0,0,0,0,0,0,0,0,0,0,2.6107,2.6108,2.6141,2.6141,2.6141,2.6149,2.6149,2.6149,2.6127,2.6127,2.6126,2.6125,2.6129,2.613,2.6131,0,0,0,0,0,0,0,0,0,0,0,0,0,2.6119,2.6108,2.6141,2.6132,2.6131,2.6149,2.6149,2.6149,2.6128,2.6127,2.6126,2.6125,2.6129,2.613,2.6131,2.6157,0,0,2.6134,2.6135,0,0,0,0,0,0,0,0,2.6118,2.612,2.6133,2.6132,2.6132,2.6136,2.6138,2.6151,2.6128,2.6129,2.6125,2.6124,2.6132,2.6133,2.6136,2.6157,2.6157,2.6134,2.6135,2.6136,2.6136,0,0,0,0,0,0,0,2.6118,2.612,2.6144,2.6133,2.6132,2.6127,2.6127,2.6141,2.6136,2.6129,2.6127,2.6128,2.6132,2.6135,2.6136,2.6157,2.6134,2.6135,2.6136,2.6136,2.6203,2.6204,0,0,0,0,0,0,2.6118,2.6119,2.6144,2.6144,2.6123,2.6128,2.6129,2.6136,2.6136,2.6135,2.6129,2.6127,2.6134,2.6135,2.6136,2.6168,2.6136,2.6137,2.6137,2.6201,2.6203,2.6204,0,0,0,0,0,0,2.6118,2.6121,2.6143,2.6132,2.6134,2.613,2.6138,2.6136,2.614,2.6136,2.6135,2.6134,2.6133,2.6135,2.6153,2.6168,2.6137,2.6138,2.62,2.6202,2.6203,2.6231,0,0,0,0,0,0,2.6117,2.6121,2.6131,2.6132,2.6135,2.616,2.6138,2.6137,2.6142,2.614,2.614,2.6139,2.6133,2.6151,2.6154,2.6169,2.6139,2.6199,2.6201,2.6203,2.6229,2.6234,2.6238,0,0,0,0,0,2.6116,2.6137,2.6131,2.6134,2.6147,2.6161,2.6163,2.6155,2.6144,2.6154,2.6152,2.6139,2.6166,2.6153,2.6156,2.6172,2.6198,2.62,2.6203,2.6227,2.6233,2.6237,0,0,0,0,0,0,2.6135,2.6137,2.613,2.6153,2.6157,2.6158,2.6169,2.6161,2.6168,2.6166,2.6156,2.6156,2.6176,2.6176,2.6161,2.6198,2.618,2.6183,2.6197,2.6203,2.6207,2.6206,2.614,0,0,0,0,0,2.6143,2.6155,2.6155,2.6174,2.6177,2.6173,2.6179,2.6174,2.6177,2.6179,2.6178,2.6181,2.6191,2.6197,2.6205,2.6229,2.6229,2.6241,2.6246,2.6249,2.6252,2.6266,2.6272,2.6212,2.6212,2.6212,0,0,2.6157,2.6159,2.6167,2.6179,2.6181,2.6194,2.6175,2.6188,2.6197,2.618,2.6198,2.6198,2.6201,2.6223,2.6232,2.6223,2.6269,2.6253,2.6255,2.6256,2.627,2.6275,2.628,2.6214,2.6214,2.6213,0,0,2.6189,2.6192,2.621,2.6214,2.6219,2.6217,2.6222,2.6224,2.6224,2.6242,2.623,2.6241,2.6256,2.626,2.6264,2.6302,2.6291,2.6304,2.6327,2.6341,2.6346,2.635,2.6364,2.6369,2.6307,2.6307,2.6307,0,2.6206,2.6225,2.6219,2.6235,2.6241,2.6228,2.6246,2.625,2.6257,2.6262,2.6252,2.6274,2.6275,2.6298,2.6308,2.6311,2.6316,2.6304,2.6346,2.635,2.6354,2.6367,2.6372,2.6309,2.6309,2.6309,2.6308,0,2.6246,2.6259,2.6273,2.6283,2.629,2.6307,2.6304,2.6312,2.6307,2.6306,2.6325,2.6327,2.6336,2.6341,2.6335,2.6365,2.6359,2.6348,2.6329,2.6361,2.6374,2.6379,2.6311,2.6311,2.631,2.631,0,0,2.6288,2.6297,2.6302,2.6308,2.6315,2.6325,2.6341,2.6352,2.636,2.6366,2.638,2.6396,2.6386,2.6391,2.6385,2.6398,2.6429,2.6385,2.6385,2.6394,2.6463,2.6471,2.6477,2.6423,2.6424,2.6425,2.6463,0,2.6321,2.6351,2.6348,2.6376,2.6389,2.6379,2.6394,2.6399,2.64,2.6411,2.641,2.6422,2.6408,2.6411,2.6423,2.6423,2.6443,2.642,2.6435,2.6436,2.6435,2.6484,2.6492,2.6527,2.6468,2.6468,2.6469,0,2.6362,2.6373,2.6403,2.641,2.6416,2.6429,2.644,2.6451,2.6458,2.6457,2.6464,2.6457,2.6474,2.6457,2.648,2.6465,2.6471,2.6472,2.6473,2.6474,2.6454,2.6485,2.6538,2.6544,2.6476,2.6476,2.6475,0,2.6391,2.6412,2.6434,2.6439,2.6447,2.6457,2.6461,2.6467,2.6475,2.6485,2.649,2.6501,2.6506,2.6515,2.6512,2.6499,2.6536,2.6518,2.6536,2.6536,2.6543,2.6543,2.6598,2.6548,2.6548,2.6548,2.6548,0,2.6428,2.6446,2.6447,2.646,2.6482,2.6479,2.65,2.6502,2.6509,2.6522,2.6514,2.6526,2.6521,2.6533,2.6531,2.6551,2.6554,2.6554,2.6553,2.6554,2.6555,2.6558,2.6555,2.6549,2.6549,2.6549,2.6548,0,2.6462,2.6464,2.6487,2.6495,2.6497,2.6513,2.6519,2.6531,2.6532,2.655,2.6553,2.6554,2.6569,2.6567,2.6582,2.658,2.6606,2.6602,2.6604,2.6603,2.6622,2.662,2.6681,2.6689,2.6634,2.6634,2.6635,0,2.6486,2.65,2.6511,2.652,2.6526,2.654,2.6549,2.6547,2.6556,2.6567,2.6579,2.6593,2.6604,2.6628,2.6629,2.6641,2.6637,2.6658,2.6639,2.6641,2.6638,2.6637,2.6639,2.6661,2.6662,2.6663,2.6663,0,2.6527,2.6528,2.6541,2.6556,2.6567,2.6578,2.6588,2.6595,2.6595,2.6606,2.6622,2.6631,2.6648,2.6662,2.6675,2.6678,2.6671,2.6669,2.6674,2.6676,2.6677,2.6677,2.6615,2.6668,2.6667,2.6667,2.6666,2.6666,2.6557,2.657,2.6581,2.6596,2.6605,2.6615,2.6628,2.6632,2.6645,2.666,2.6658,2.6676,2.6685,2.6701,2.6706,2.672,2.6712,2.6719,2.6721,2.6722,2.6725,2.6675,2.6722,2.6722,2.6722,2.6721,2.6721,0,2.6598,2.6605,2.662,2.6635,2.6648,2.6643,2.6654,2.6665,2.6681,2.6691,2.6703,2.6722,2.6737,2.6741,2.6755,2.6765,2.6762,2.6769,2.6768,2.6769,2.6731,2.6725,2.6771,2.6771,2.6771,2.6771,2.6771,2.6771,2.6621,2.6644,2.6647,2.6674,2.6681,2.67,2.6707,2.6717,2.6724,2.6747,2.676,2.6763,2.6771,2.6786,2.6799,2.68,2.6805,2.6814,2.6813,2.6777,2.6772,2.6767,2.6762,2.6815,2.6815,2.685,2.6851,2.6851]}]]